ECMWFNIL_500_rhum_132.txt.gz
RH
4 3 4 4 5 5 6 7 7 7 6 6 7 9 10 10 10 10 11 15 14 13 15 15 16 16 16 16 17 18 16 17 21 17 15 17 17 19 20 25 36 40
4 4 4 4 4 5 6 6 7 7 6 6 6 8 10 10 12 12 11 14 13 13 14 14 15 15 16 18 17 17 17 17 21 22 20 18 17 17 20 23 25 26
4 4 4 5 5 6 6 7 8 7 6 7 6 7 9 10 11 12 12 12 12 14 15 14 13 13 14 17 18 18 19 17 20 24 21 19 21 19 18 22 22 21
4 5 5 5 6 6 7 8 8 8 7 7 7 7 7 8 9 10 10 10 10 11 12 11 11 11 11 13 14 15 17 14 16 20 17 14 18 18 16 17 18 17
4 4 5 5 6 6 7 8 8 9 9 8 7 7 7 7 8 8 8 9 9 8 8 8 8 9 9 10 10 11 12 13 11 13 14 13 12 11 11 11 10 14
4 4 5 5 6 6 7 9 9 9 10 10 9 8 7 7 7 7 8 7 7 7 7 7 7 7 7 6 7 8 9 9 6 8 15 18 16 12 10 8 8 12
5 5 5 5 6 7 8 10 10 10 12 12 12 11 10 9 7 7 7 6 7 7 6 6 5 5 6 5 5 6 6 7 5 6 9 13 16 15 10 8 8 9
5 5 5 6 5 7 10 12 11 12 13 13 14 14 13 13 13 14 13 10 8 7 7 7 6 6 6 5 5 5 4 6 6 6 6 7 9 10 10 10 11 10
7 7 7 6 7 8 11 13 13 13 14 16 17 17 15 17 18 19 21 19 16 17 16 14 13 12 9 7 8 8 6 5 5 6 7 7 7 9 11 11 12 12
10 10 10 9 10 11 11 13 15 14 15 17 20 21 21 22 23 22 24 26 26 27 25 21 20 20 16 16 19 19 18 14 10 7 7 8 8 10 11 11 13 14
17 12 14 14 12 15 17 18 17 16 17 18 20 23 25 27 30 31 32 32 29 28 27 25 25 24 20 20 24 27 28 26 22 18 17 15 11 9 9 8 10 12
33 18 13 15 19 29 31 22 16 17 19 21 22 27 35 39 38 37 36 37 36 34 32 31 30 29 27 23 21 25 28 28 26 26 28 29 27 28 28 22 18 20
47 33 21 19 25 37 37 26 24 23 18 19 26 33 38 41 44 48 48 46 47 45 40 39 38 34 33 32 29 29 30 31 31 32 36 40 45 52 51 45 42 38
37 34 30 25 25 33 33 32 36 34 27 25 27 28 26 27 39 54 56 52 62 68 55 44 45 42 38 41 42 38 37 36 34 36 40 42 47 54 50 48 54 50
20 22 24 22 23 22 20 23 27 31 39 42 38 34 28 22 28 45 56 56 63 75 66 52 54 57 51 48 47 41 39 39 35 35 39 40 43 48 45 41 46 49
20 19 16 18 22 17 14 16 14 16 27 38 47 49 42 32 25 34 57 65 56 56 65 68 65 64 62 58 52 42 36 39 40 41 45 44 41 44 43 38 37 41
25 21 19 24 24 17 16 16 11 10 12 19 35 47 47 44 38 37 53 67 58 46 54 63 60 59 63 61 56 49 43 41 40 43 52 55 48 44 40 35 35 37
33 33 40 43 35 26 24 20 13 10 8 8 18 32 41 46 47 47 53 64 65 55 51 49 45 49 56 55 55 54 49 45 40 37 44 51 53 51 39 27 26 29
51 57 64 64 58 52 47 42 35 27 21 18 16 21 33 44 49 51 53 59 64 64 60 55 49 48 47 47 51 52 47 45 44 44 43 42 51 61 50 35 39 46
71 80 80 78 80 77 71 69 68 63 59 54 46 37 33 39 47 49 50 54 60 63 65 66 65 62 50 38 40 47 49 44 37 40 48 47 50 58 56 50 62 73
81 86 85 87 89 84 81 81 77 79 83 82 79 71 57 51 55 58 59 61 63 64 63 64 69 73 68 55 44 43 48 47 37 33 45 55 54 54 56 55 61 73
91 91 89 91 90 85 86 86 81 84 91 89 86 83 77 72 72 73 75 77 77 74 70 70 73 77 80 79 68 52 45 48 49 45 49 59 59 55 55 54 58 69
95 95 91 87 86 86 88 87 85 85 85 83 83 81 78 78 78 80 83 85 84 81 81 86 89 84 82 84 81 69 55 48 50 53 55 58 56 51 47 40 42 55
87 88 87 84 82 81 81 83 81 78 75 75 78 78 75 76 78 78 80 80 79 78 85 95 99 95 93 90 85 78 66 54 49 51 55 56 54 51 48 40 40 48
75 75 76 75 72 70 73 77 75 71 73 77 79 81 82 83 82 79 80 83 83 83 91 99 100 99 99 97 91 85 76 63 52 49 50 53 54 51 48 50 56 58
53 60 64 66 68 69 70 70 68 69 79 89 92 94 95 93 90 88 91 95 95 94 97 100 100 99 100 100 97 94 87 73 59 54 50 45 46 48 48 54 63 63

ECMWFNIL_500_rhum_135.txt.gz
RH
6 5 5 5 4 6 5 6 9 9 7 8 8 8 9 10 10 10 13 15 14 15 16 16 18 18 15 17 20 17 17 20 19 14 14 15 15 16 18 24 32 40
6 5 4 5 4 4 5 5 7 9 8 8 8 8 9 10 11 11 13 16 14 14 16 15 15 16 16 16 16 16 16 18 19 16 15 16 15 16 18 19 19 23
5 5 4 4 5 4 5 5 6 8 9 8 7 8 9 10 12 12 13 14 13 15 16 14 13 13 15 15 15 16 16 16 20 20 19 20 19 17 17 16 17 17
6 6 5 4 4 5 6 6 7 8 9 9 8 8 8 9 10 11 12 12 12 14 13 12 12 11 12 12 12 13 14 13 15 16 16 16 16 17 15 14 14 14
6 5 5 5 4 5 6 7 8 9 10 10 10 9 8 8 9 9 10 9 9 10 9 9 8 8 9 8 9 9 10 11 11 10 11 13 15 13 10 11 9 12
6 5 5 5 5 5 6 7 8 9 10 11 11 11 9 8 8 8 8 8 8 8 7 7 7 7 7 6 7 7 7 8 8 8 8 11 17 16 12 12 9 12
6 6 5 5 4 5 6 6 8 9 10 10 11 12 11 10 9 8 8 7 7 7 7 7 6 5 6 6 6 6 6 6 6 6 7 7 10 13 12 12 9 9
6 5 5 5 4 5 6 6 7 9 11 10 11 12 12 12 11 10 10 10 9 9 8 8 9 8 8 7 6 6 6 6 6 6 7 6 6 8 9 9 11 12
6 6 5 6 6 5 6 6 7 10 13 12 12 13 13 14 14 14 16 17 16 13 11 11 12 11 10 10 9 9 8 9 8 7 6 7 7 7 8 10 11 11
6 8 7 6 7 6 6 6 6 10 14 14 14 15 17 17 18 20 22 24 24 22 22 26 27 26 24 23 21 18 18 19 19 17 15 11 10 10 9 10 11 12
12 11 10 10 9 8 9 8 8 12 14 16 15 15 19 23 23 26 29 29 29 29 31 41 52 58 57 55 51 41 29 26 26 25 23 19 18 17 13 11 9 9
29 22 13 15 16 13 14 14 11 12 14 16 19 17 19 24 24 27 33 32 31 32 33 39 49 57 60 63 68 61 47 44 42 31 24 24 23 23 25 27 29 27
45 34 18 20 24 18 17 16 17 26 30 24 20 18 20 24 23 27 36 39 38 38 39 42 47 54 61 65 69 67 63 67 61 38 26 29 28 29 35 39 42 44
42 32 31 41 44 31 20 17 22 40 48 37 28 25 23 21 22 28 36 39 40 44 48 50 52 60 71 74 70 64 60 62 57 41 34 35 34 33 35 38 48 55
60 56 63 67 62 48 33 25 27 39 47 44 42 42 36 28 26 28 29 26 30 44 55 55 52 59 71 75 70 63 57 54 51 45 41 39 38 36 35 45 62 69
77 84 88 73 61 64 57 43 33 32 35 35 36 38 40 42 43 40 33 26 26 35 45 50 56 62 68 70 69 64 57 51 48 46 44 41 39 39 40 49 56 57
62 75 90 76 60 68 72 60 47 37 31 24 20 21 25 34 45 50 50 47 40 34 33 44 61 67 61 58 62 61 55 50 49 52 50 44 43 44 44 47 50 51
65 73 88 83 71 73 78 74 61 47 37 28 19 17 16 15 22 33 45 54 53 44 35 38 56 70 66 57 57 58 55 49 49 53 51 47 50 51 47 43 44 48
76 78 80 74 69 68 65 59 51 46 46 38 24 18 17 12 9 12 20 32 42 45 43 40 49 66 73 68 61 60 55 45 42 48 51 53 54 52 47 45 44 45
77 79 72 60 56 54 47 42 46 52 52 42 30 24 20 14 11 10 10 16 25 36 44 46 48 59 72 75 71 66 60 52 48 48 47 47 49 49 48 48 49 51
76 75 66 57 59 61 53 49 56 61 59 55 52 46 38 32 29 27 23 22 23 28 38 45 48 54 62 69 70 69 67 65 64 61 52 42 41 46 50 48 44 48
81 80 73 68 71 73 69 67 71 72 74 79 79 71 64 63 60 55 51 47 42 41 43 47 52 58 64 68 70 69 67 66 67 70 68 61 54 51 52 52 47 48
93 92 87 82 81 82 82 84 87 85 84 89 87 80 78 77 73 69 64 62 64 66 63 61 66 74 80 84 85 83 79 77 76 78 80 80 76 69 61 57 56 60
96 92 88 86 85 87 87 87 90 89 88 89 87 84 84 81 75 73 71 73 81 85 79 76 79 83 86 89 92 94 94 93 92 92 93 92 88 84 78 68 60 62
94 87 81 80 84 90 92 89 88 88 89 90 88 86 86 81 77 78 81 86 92 93 86 82 83 86 87 85 84 88 92 92 91 92 95 98 96 93 91 83 71 64
93 88 82 80 85 92 93 91 89 88 87 86 83 83 84 81 79 83 89 94 95 95 94 92 93 96 97 91 86 85 86 88 91 94 94 97 99 99 98 96 88 77

ECMWFNIL_500_rhum_138.txt.gz
RH
5 5 5 5 5 6 6 8 9 8 7 8 9 8 9 10 10 11 13 14 15 18 19 18 20 20 19 21 23 19 16 19 19 14 14 14 14 17 24 37 42 40
5 5 5 5 4 5 5 6 8 9 8 8 8 9 9 10 10 10 14 15 13 15 17 16 18 17 16 17 18 16 15 18 17 14 15 14 14 16 21 28 27 23
7 5 4 5 4 4 5 4 6 8 9 8 7 9 10 10 11 12 14 15 14 15 16 15 15 15 16 17 16 15 16 18 19 19 20 20 19 17 18 21 19 18
6 6 5 5 4 4 5 5 6 7 9 9 8 8 9 11 12 12 13 13 13 14 14 12 13 12 13 14 13 14 13 14 16 17 17 17 17 17 18 17 16 16
6 6 6 5 4 4 5 6 7 8 8 9 9 9 8 9 10 11 12 12 12 13 11 9 10 9 9 9 9 9 10 9 10 11 11 12 13 14 15 12 11 11
7 6 6 5 5 4 5 6 6 8 9 9 10 10 9 9 9 9 9 9 9 9 8 8 8 8 7 7 8 7 7 7 7 8 7 7 10 14 14 12 10 9
6 7 6 5 6 5 5 5 6 7 8 9 10 10 10 10 9 9 9 10 10 9 9 8 7 8 7 6 6 6 6 6 5 7 7 6 7 8 8 10 10 9
6 6 6 6 6 5 5 4 5 7 7 9 10 10 11 11 10 11 10 8 8 7 8 9 10 11 12 12 12 9 8 8 7 5 5 6 7 7 6 7 8 10
7 6 5 7 6 6 6 5 5 6 6 8 9 11 12 12 13 12 12 21 28 21 14 13 13 13 17 19 17 14 12 15 23 26 20 12 8 6 7 8 8 8
7 7 6 6 7 7 6 5 5 6 6 8 9 12 13 12 15 13 16 38 54 44 29 21 16 17 22 21 19 26 32 32 39 51 48 38 27 17 11 10 9 11
7 7 6 6 6 7 6 5 6 6 6 6 8 12 14 12 16 17 19 36 48 42 33 25 22 26 32 33 35 48 57 50 48 59 63 56 44 34 29 27 24 23
9 7 6 7 6 5 7 7 6 6 7 7 7 12 15 14 14 16 21 29 33 34 33 28 28 32 36 43 47 52 59 58 55 64 72 63 46 43 55 61 61 61
22 19 12 10 8 7 7 6 7 8 6 7 10 12 17 21 22 27 35 37 33 33 34 33 34 33 37 48 52 50 58 64 59 60 68 63 47 46 58 65 68 73
34 30 24 21 17 13 11 11 18 23 17 15 15 14 21 30 29 31 43 49 44 38 35 37 39 37 40 51 59 59 64 70 67 63 62 57 52 52 52 52 60 70
34 26 34 42 37 25 18 21 35 44 40 35 28 26 40 48 36 31 38 40 40 39 37 38 40 40 42 49 56 61 66 73 76 73 64 53 51 54 48 42 46 57
40 31 45 63 66 51 35 38 53 57 50 46 42 41 54 60 49 49 53 45 39 38 36 33 31 35 46 54 55 56 64 76 81 81 75 63 55 54 49 42 40 42
63 57 63 79 84 68 54 61 72 66 52 49 47 41 46 52 48 51 54 49 45 43 36 32 26 25 35 46 49 53 65 75 78 78 80 73 63 59 55 51 48 44
80 76 76 86 90 80 71 72 74 66 57 56 50 36 30 33 34 34 34 34 40 44 46 49 44 35 32 32 35 44 60 70 69 68 71 71 67 63 61 61 57 51
90 90 83 85 91 91 86 77 69 63 58 59 56 46 37 31 26 24 20 18 21 27 34 45 52 54 51 43 36 35 44 57 63 63 62 62 62 60 56 53 52 53
96 99 90 84 84 82 77 72 71 66 59 57 60 59 55 47 38 32 25 18 15 15 16 21 30 42 49 50 48 44 42 47 57 65 67 63 61 59 54 49 48 51
98 100 96 90 81 69 62 63 69 69 64 60 58 56 52 46 41 40 35 24 18 17 15 11 11 17 25 34 43 49 51 51 56 67 75 75 72 70 66 62 61 59
98 98 96 93 85 72 67 71 74 69 60 52 47 43 39 38 41 44 41 34 31 32 35 37 37 36 37 37 38 42 48 51 55 64 75 79 78 76 73 70 68 68
99 99 98 97 92 82 78 82 80 67 51 43 41 41 40 41 43 46 48 54 59 61 65 72 77 76 73 71 66 61 58 57 57 60 65 71 74 76 77 76 76 78
96 96 97 97 94 88 86 86 82 71 56 45 46 53 54 50 50 56 67 77 81 78 77 79 81 80 81 83 85 84 83 81 79 75 73 77 83 88 91 92 93 95
91 90 95 96 93 90 88 86 83 77 67 58 61 69 71 66 67 75 82 86 86 81 76 76 77 79 82 87 91 94 94 93 91 89 87 89 92 93 93 94 95 97
94 93 97 99 96 94 92 89 87 85 80 77 79 82 84 84 84 88 90 86 79 74 73 78 83 86 90 94 97 99 99 96 94 92 91 91 92 92 92 94 95 95

ECMWFNIL_500_rhum_141.txt.gz
RH
7 6 6 7 7 7 8 9 9 8 8 8 8 8 9 10 11 13 13 14 15 16 17 17 17 19 19 19 20 18 16 18 18 16 16 16 18 19 20 29 41 46
6 6 6 7 6 7 8 8 9 8 8 8 9 8 9 10 9 11 12 12 14 16 16 17 18 18 17 19 19 15 15 18 16 13 13 14 15 16 18 24 32 33
6 6 5 6 6 6 6 7 8 8 8 8 9 9 9 10 10 11 13 12 13 15 15 15 16 15 15 16 16 14 15 17 16 14 14 15 15 16 17 18 19 19
5 5 5 5 5 5 5 6 7 8 8 8 8 9 10 11 11 12 13 13 13 14 14 13 14 13 14 13 13 14 14 15 16 16 16 17 17 16 15 15 14 14
6 5 5 5 4 5 5 5 6 7 8 8 8 8 10 11 12 12 13 13 13 13 11 10 10 10 10 11 10 11 11 11 11 11 12 14 14 14 14 12 10 10
7 6 5 5 5 4 5 5 6 7 8 8 8 8 9 10 11 12 12 12 12 12 10 8 8 8 8 8 7 7 8 9 9 9 9 9 9 13 16 15 13 10
7 6 5 5 5 4 5 5 6 7 8 8 9 8 8 8 10 10 10 11 10 10 9 8 8 8 8 7 7 7 6 6 7 6 6 6 7 9 12 13 12 11
7 7 6 6 5 5 5 5 5 6 7 8 8 9 9 8 8 8 9 9 9 9 9 9 9 8 8 7 6 7 6 6 6 5 5 5 5 6 7 8 8 9
6 6 6 6 6 5 5 5 6 5 6 7 8 9 9 9 8 9 9 8 9 8 7 7 8 8 8 8 9 9 8 7 6 6 8 8 6 6 6 7 8 8
6 6 6 5 5 5 6 5 5 5 6 6 7 8 9 9 10 10 9 9 8 8 12 13 10 9 9 9 13 15 14 14 16 18 23 25 23 19 13 9 8 8
7 6 6 5 5 5 5 6 5 5 5 6 6 7 9 10 11 11 11 11 10 20 38 43 30 22 18 16 20 26 28 33 40 42 43 47 52 47 31 19 15 13
6 7 7 6 6 5 5 5 6 5 5 6 6 6 8 9 12 13 14 19 27 41 61 64 53 45 40 33 34 38 40 45 50 51 50 55 65 65 48 34 30 32
7 6 7 8 6 6 6 5 5 5 5 5 5 6 7 7 11 14 18 30 44 53 62 59 51 50 50 46 45 46 46 48 48 49 53 57 63 65 57 47 41 41
23 10 6 8 8 6 5 5 5 5 5 6 6 6 7 6 9 13 19 32 43 51 58 52 40 41 48 49 48 47 48 53 52 50 55 62 64 61 57 53 49 45
46 28 13 8 9 9 8 6 5 5 5 6 6 6 7 8 10 12 18 29 36 42 50 50 41 40 42 40 42 44 45 50 52 50 54 65 70 65 58 54 49 45
63 52 34 22 16 14 13 10 8 7 6 6 8 9 10 10 11 13 17 25 30 30 34 40 39 37 34 34 39 44 45 47 50 50 51 61 69 70 65 58 51 47
69 66 58 48 36 25 21 17 13 11 10 9 10 12 17 19 18 18 23 32 38 34 31 35 37 34 33 33 34 36 37 41 49 53 52 54 63 69 68 64 61 56
75 72 66 63 57 45 32 24 20 18 18 21 19 17 26 34 31 29 36 48 53 48 42 42 41 39 39 37 35 31 28 29 35 42 44 47 57 67 69 65 62 57
85 81 69 65 71 65 47 36 37 37 39 42 37 30 34 42 42 42 43 44 45 43 40 38 37 36 35 35 35 36 37 35 34 34 34 35 43 53 59 60 61 64
90 89 77 69 73 75 67 59 56 57 56 53 50 48 48 46 46 46 43 38 32 29 28 28 27 24 22 22 24 27 32 37 41 44 43 40 37 35 40 52 65 73
89 91 87 81 77 79 84 79 71 71 71 66 69 74 68 57 51 49 49 46 39 33 32 32 30 26 21 16 15 15 16 18 25 32 37 40 40 36 38 48 59 67
88 88 90 89 85 85 89 86 83 89 90 85 89 92 85 78 69 58 52 53 53 52 51 45 40 37 30 21 16 14 12 10 9 11 14 19 24 30 37 43 50 60
92 90 91 91 89 90 92 90 90 96 96 92 93 94 92 90 79 62 54 56 58 55 49 44 44 43 40 35 29 22 18 19 21 24 29 32 31 33 38 42 47 55
88 88 92 95 95 94 97 98 97 98 96 93 88 83 77 72 62 56 57 59 56 49 43 42 46 50 53 56 52 45 43 48 54 59 65 67 66 65 67 67 66 66
84 84 90 95 96 97 98 98 97 94 92 89 84 76 67 60 57 59 62 57 49 46 47 47 50 57 66 71 72 69 67 68 71 77 81 83 85 88 90 92 91 90
94 91 91 90 91 95 97 96 95 94 94 93 91 84 75 69 68 70 72 65 54 51 57 60 62 68 74 77 79 78 76 75 79 86 91 93 95 96 96 98 99 99

ECMWFNIL_500_rhum_144.txt.gz
RH
7 7 7 7 8 8 9 9 8 8 9 9 9 10 12 14 14 14 14 15 15 15 15 17 18 18 17 17 17 18 18 18 18 18 16 16 16 17 19 22 33 42
7 7 7 7 7 8 8 7 7 7 7 8 8 9 9 10 11 11 12 13 14 14 15 16 16 17 18 19 19 18 17 17 17 15 13 14 14 14 17 22 29 31
7 7 6 7 7 7 8 8 7 7 7 7 8 8 9 9 9 10 10 11 12 14 15 16 16 17 17 17 18 16 15 16 15 13 11 12 12 13 14 17 18 19
6 7 6 6 7 7 7 8 8 8 7 7 8 9 9 9 9 10 10 11 12 13 14 14 14 14 14 14 14 13 14 15 15 13 13 13 13 13 13 12 13 15
6 6 6 6 6 6 6 6 7 8 7 7 8 9 9 9 9 10 11 12 12 13 13 12 12 12 12 11 10 11 12 12 12 12 11 12 12 11 9 9 9 10
6 6 5 5 5 5 5 5 6 6 8 8 8 8 10 10 10 11 12 12 12 12 11 10 10 10 10 10 8 8 8 8 8 8 8 8 8 8 9 9 8 8
7 6 5 5 5 5 5 5 5 6 7 8 8 8 9 10 11 11 12 11 11 11 10 9 9 8 8 8 7 6 6 6 6 6 6 7 6 7 9 10 10 9
8 7 6 5 5 5 5 5 4 5 7 8 8 8 8 9 11 11 11 11 11 11 10 9 8 8 7 7 7 6 6 6 6 6 6 6 6 7 7 7 7 7
9 8 7 6 6 5 5 5 5 5 5 7 8 8 9 8 9 10 10 10 10 10 10 9 8 8 8 8 8 9 9 8 8 7 6 6 6 6 6 6 6 7
8 9 9 9 8 7 5 5 5 5 5 6 7 7 8 8 9 9 9 9 10 9 8 9 8 8 8 9 10 11 13 15 15 14 14 17 18 15 12 10 8 7
8 8 9 10 10 9 7 6 5 5 5 5 6 6 7 8 9 10 10 10 9 8 9 8 8 10 12 13 12 10 13 19 25 31 37 40 41 38 36 33 26 18
8 8 8 8 10 9 8 7 6 6 6 5 5 6 6 7 8 9 11 12 10 10 10 8 14 26 28 23 19 17 20 24 31 45 57 58 57 57 58 58 51 36
6 7 8 8 8 8 7 7 7 6 6 6 6 5 5 6 7 8 10 11 12 12 10 11 27 45 45 35 32 32 33 36 39 48 58 60 61 62 63 67 66 56
22 9 6 7 7 6 6 6 7 7 7 6 6 6 6 5 5 7 8 9 11 12 12 20 41 58 55 43 38 38 40 42 44 51 58 62 64 64 65 68 68 63
55 28 8 5 6 7 7 6 5 6 7 7 7 6 6 6 5 6 6 7 9 11 12 21 38 54 57 46 36 35 38 39 40 46 53 59 65 68 69 69 67 64
70 49 28 19 14 8 6 6 6 6 6 6 7 7 6 6 5 6 6 6 8 10 11 16 25 38 47 47 41 37 36 35 36 40 44 49 55 59 59 60 65 69
74 65 55 49 43 33 20 11 6 6 6 5 5 6 6 6 6 6 6 6 7 9 11 13 19 26 32 37 39 38 36 34 34 37 41 43 46 47 50 56 62 65
73 72 70 66 65 62 53 38 21 11 8 7 6 6 6 7 7 7 7 9 9 10 12 13 17 23 27 30 35 38 37 37 37 37 36 34 32 33 37 45 50 52
60 63 73 76 73 72 72 66 52 35 23 16 12 9 8 8 9 9 9 12 14 15 16 15 20 31 38 39 42 45 46 46 45 42 39 36 34 35 36 36 36 37
62 62 71 74 69 66 70 73 72 65 55 43 28 17 15 15 14 16 18 20 26 31 30 27 32 43 49 46 44 44 42 39 36 33 31 32 35 41 44 43 42 41
85 83 84 82 73 69 73 79 83 82 77 69 52 33 23 20 21 32 43 45 44 45 42 41 46 47 43 37 33 32 30 27 24 21 19 19 22 25 28 31 37 45
94 90 89 90 86 80 82 89 94 92 84 78 72 61 46 33 30 46 66 73 73 66 53 51 58 55 44 37 34 34 34 33 31 28 25 21 18 17 17 17 24 39
94 91 89 91 90 86 88 93 98 100 91 82 84 87 75 57 50 59 73 84 90 84 65 57 66 67 59 55 54 52 47 42 38 36 35 34 34 36 36 31 31 43
79 84 88 92 93 91 92 96 97 100 96 89 90 95 90 79 73 76 83 88 90 86 76 71 72 70 66 66 64 56 45 38 35 37 44 54 63 68 64 58 61 72
80 86 90 94 97 96 95 98 99 99 99 95 94 97 95 89 86 87 91 95 96 94 90 85 80 75 72 71 66 56 46 42 43 50 64 78 86 88 81 74 81 93
90 93 95 96 99 99 98 99 100 100 99 97 96 98 95 91 91 94 97 99 100 96 91 87 83 79 76 72 65 58 51 51 59 70 80 87 90 91 89 85 89 97